This is the latest recevied weather packets stored in our database for station/object KP4OZ. If no packets are shown the sender has not sent any weather packets the latest 10 day(s).
| Time | Temp. | Humidity | Pressure | Rain* | Wind** | Luminosity | Snow |
|---|---|---|---|---|---|---|---|
| 1777480450 | 30.56° C | 71% | 1014.8 hPa | 0 mm | - | - | - |
| 1777480146 | 30° C | 72% | 1014.6 hPa | 0 mm | - | - | - |
| 1777479843 | 30.56° C | 70% | 1015 hPa | 0 mm | - | - | - |
| 1777479540 | 30° C | 71% | 1014.8 hPa | 0 mm | - | - | - |
| 1777479236 | 30° C | 72% | 1015 hPa | 0 mm | - | - | - |
| 1777478933 | 29.44° C | 73% | 1014.9 hPa | 0 mm | - | - | - |
| 1777478630 | 28.89° C | 76% | 1015 hPa | 0 mm | - | - | - |
| 1777478327 | 28.89° C | 77% | 1015.1 hPa | 0 mm | - | - | - |
| 1777478023 | 28.89° C | 76% | 1014.9 hPa | 0 mm | - | - | - |
| 1777477718 | 28.89° C | 75% | 1015.1 hPa | 0 mm | - | - | - |
| 1777477416 | 29.44° C | 74% | 1015.3 hPa | 0 mm | - | - | - |
| 1777477112 | 29.44° C | 74% | 1015.2 hPa | 0 mm | - | - | - |
| 1777476809 | 29.44° C | 73% | 1015.3 hPa | 0 mm | - | - | - |
| 1777476506 | 29.44° C | 72% | 1015.2 hPa | 0 mm | - | - | - |
| 1777476203 | 30° C | 71% | 1015.1 hPa | 0 mm | - | - | - |
| 1777475898 | 29.44° C | 71% | 1015.3 hPa | 0 mm | - | - | - |
| 1777475595 | 29.44° C | 72% | 1015.3 hPa | 0 mm | - | - | - |
| 1777475291 | 29.44° C | 73% | 1015.5 hPa | 0 mm | - | - | - |
| 1777474986 | 29.44° C | 73% | 1015.3 hPa | 0 mm | - | - | - |
| 1777474683 | 29.44° C | 73% | 1015.2 hPa | 0 mm | - | - | - |
| 1777474380 | 29.44° C | 75% | 1015.3 hPa | 0 mm | - | - | - |
| 1777474075 | 29.44° C | 76% | 1015.2 hPa | 0 mm | - | - | - |
| 1777473774 | 29.44° C | 75% | 1015.4 hPa | 0 mm | - | - | - |
| 1777473470 | 29.44° C | 74% | 1015.1 hPa | 0 mm | - | - | - |
| 1777473166 | 29.44° C | 74% | 1015.3 hPa | 0 mm | - | - | - |
* Rain latest hour (hover to see other rain measurements)
** Current wind speed in m/s (hover to see current wind gust speed)